Time,TemperatureF,DewpointF,PressureIn,WindDirection,WindDirectionDegrees,WindSpeedMPH,WindSpeedGustMPH,Humidity,HourlyPrecipIn,Conditions,Clouds,dailyrainin,SoftwareType,DateUTC
2013-09-05 00:08:00,73.9,57.0,29.87,ESE,107,1.0,5.0,56,0.00,,,0.00,weatherlink.com 1.10,2013-09-05 05:08:00,
2013-09-05 00:23:00,73.6,57.0,29.87,ESE,119,1.0,6.0,56,0.00,,,0.00,weatherlink.com 1.10,2013-09-05 05:23:00,
2013-09-05 00:38:00,73.0,56.0,29.88,ESE,110,1.0,5.0,56,0.00,,,0.00,weatherlink.com 1.10,2013-09-05 05:38:00,
2013-09-05 00:53:00,72.2,56.0,29.88,ESE,111,0.0,1.0,57,0.00,,,0.00,weatherlink.com 1.10,2013-09-05 05:53:00,
2013-09-05 01:08:00,72.1,55.0,29.87,ESE,110,5.0,7.0,56,0.00,,,0.00,weatherlink.com 1.10,2013-09-05 06:08:00,
2013-09-05 01:23:00,72.7,55.0,29.87,ESE,121,3.0,8.0,54,0.00,,,0.00,weatherlink.com 1.10,2013-09-05 06:23:00,
2013-09-05 01:38:00,72.8,55.0,29.88,ESE,117,0.0,4.0,53,0.00,,,0.00,weatherlink.com 1.10,2013-09-05 06:38:00,
2013-09-05 01:53:00,71.7,55.0,29.88,NNE,22,0.0,3.0,55,0.00,,,0.00,weatherlink.com 1.10,2013-09-05 06:53:00,
2013-09-05 02:08:00,72.0,54.0,29.87,ESE,111,3.0,4.0,54,0.00,,,0.00,weatherlink.com 1.10,2013-09-05 07:08:00,
2013-09-05 02:24:00,72.7,54.0,29.87,ESE,108,0.0,10.0,52,0.00,,,0.00,weatherlink.com 1.10,2013-09-05 07:24:00,
2013-09-05 02:39:00,71.9,54.0,29.86,ESE,118,0.0,4.0,53,0.00,,,0.00,weatherlink.com 1.10,2013-09-05 07:39:00,
2013-09-05 02:54:00,71.9,54.0,29.86,ESE,109,0.0,5.0,53,0.00,,,0.00,weatherlink.com 1.10,2013-09-05 07:54:00,
2013-09-05 03:09:00,71.7,55.0,29.86,ESE,117,3.0,4.0,55,0.00,,,0.00,weatherlink.com 1.10,2013-09-05 08:09:00,
2013-09-05 03:24:00,71.6,54.0,29.87,ESE,114,0.0,7.0,55,0.00,,,0.00,weatherlink.com 1.10,2013-09-05 08:24:00,
2013-09-05 03:39:00,70.3,54.0,29.86,ESE,111,2.0,2.0,57,0.00,,,0.00,weatherlink.com 1.10,2013-09-05 08:39:00,
2013-09-05 03:54:00,71.0,54.0,29.87,East,100,0.0,2.0,56,0.00,,,0.00,weatherlink.com 1.10,2013-09-05 08:54:00,
2013-09-05 04:09:00,71.0,55.0,29.86,ESE,103,1.0,2.0,57,0.00,,,0.00,weatherlink.com 1.10,2013-09-05 09:09:00,
2013-09-05 04:24:00,70.8,56.0,29.86,ESE,104,1.0,2.0,59,0.00,,,0.00,weatherlink.com 1.10,2013-09-05 09:24:00,
2013-09-05 04:39:00,70.7,56.0,29.86,ESE,109,1.0,4.0,60,0.00,,,0.00,weatherlink.com 1.10,2013-09-05 09:39:00,
2013-09-05 04:54:00,70.8,56.0,29.86,ESE,105,0.0,3.0,60,0.00,,,0.00,weatherlink.com 1.10,2013-09-05 09:54:00,
2013-09-05 05:09:00,69.5,56.0,29.86,ESE,105,0.0,0.0,62,0.00,,,0.00,weatherlink.com 1.10,2013-09-05 10:09:00,
2013-09-05 05:24:00,69.7,56.0,29.85,ESE,105,0.0,0.0,62,0.00,,,0.00,weatherlink.com 1.10,2013-09-05 10:24:00,
2013-09-05 05:39:00,69.2,55.0,29.86,ESE,106,0.0,1.0,62,0.00,,,0.00,weatherlink.com 1.10,2013-09-05 10:39:00,
2013-09-05 05:54:00,68.7,56.0,29.86,ESE,106,0.0,1.0,64,0.00,,,0.00,weatherlink.com 1.10,2013-09-05 10:54:00,
2013-09-05 06:09:00,69.5,56.0,29.86,ESE,105,0.0,3.0,63,0.00,,,0.00,weatherlink.com 1.10,2013-09-05 11:09:00,
2013-09-05 06:24:00,69.4,57.0,29.86,ESE,108,0.0,2.0,64,0.00,,,0.00,weatherlink.com 1.10,2013-09-05 11:24:00,
2013-09-05 06:40:00,68.5,56.0,29.86,NNW,347,0.0,1.0,65,0.00,,,0.00,weatherlink.com 1.10,2013-09-05 11:40:00,
2013-09-05 06:54:00,69.4,57.0,29.87,NNW,348,0.0,0.0,64,0.00,,,0.00,weatherlink.com 1.10,2013-09-05 11:54:00,
2013-09-05 07:09:00,69.4,57.0,29.87,NE,46,0.0,1.0,64,0.00,,,0.00,weatherlink.com 1.10,2013-09-05 12:09:00,
2013-09-05 07:24:00,70.0,57.0,29.87,East,90,1.0,2.0,63,0.00,,,0.00,weatherlink.com 1.10,2013-09-05 12:24:00,
2013-09-05 07:39:00,70.5,57.0,29.87,ESE,108,0.0,3.0,62,0.00,,,0.00,weatherlink.com 1.10,2013-09-05 12:39:00,
2013-09-05 07:54:00,69.1,56.0,29.87,ESE,109,0.0,1.0,64,0.00,,,0.00,weatherlink.com 1.10,2013-09-05 12:54:00,
2013-09-05 08:09:00,67.6,56.0,29.88,South,185,0.0,3.0,66,0.00,,,0.00,weatherlink.com 1.10,2013-09-05 13:09:00,
2013-09-05 08:24:00,68.7,57.0,29.89,South,185,0.0,0.0,66,0.00,,,0.00,weatherlink.com 1.10,2013-09-05 13:24:00,
2013-09-05 08:39:00,69.9,57.0,29.89,South,185,0.0,0.0,63,0.00,,,0.00,weatherlink.com 1.10,2013-09-05 13:39:00,
2013-09-05 09:09:00,71.2,56.0,29.89,South,184,0.0,0.0,60,0.00,,,0.00,weatherlink.com 1.10,2013-09-05 14:09:00,
2013-09-05 09:24:00,71.7,57.0,29.90,West,262,0.0,3.0,60,0.00,,,0.00,weatherlink.com 1.10,2013-09-05 14:24:00,
2013-09-05 09:39:00,73.1,57.0,29.90,West,266,0.0,1.0,58,0.00,,,0.00,weatherlink.com 1.10,2013-09-05 14:39:00,
2013-09-05 09:54:00,74.5,58.0,29.90,WSW,256,1.0,3.0,57,0.00,,,0.00,weatherlink.com 1.10,2013-09-05 14:54:00,
2013-09-05 10:09:00,75.7,58.0,29.90,West,260,2.0,5.0,54,0.00,,,0.00,weatherlink.com 1.10,2013-09-05 15:09:00,
2013-09-05 10:24:00,77.6,58.0,29.90,West,271,0.0,3.0,52,0.00,,,0.00,weatherlink.com 1.10,2013-09-05 15:24:00,
2013-09-05 10:40:00,79.8,58.0,29.91,South,176,0.0,3.0,48,0.00,,,0.00,weatherlink.com 1.10,2013-09-05 15:40:00,
2013-09-05 10:55:00,81.0,58.0,29.91,SE,128,1.0,6.0,46,0.00,,,0.00,weatherlink.com 1.10,2013-09-05 15:55:00,
2013-09-05 11:10:00,82.1,56.0,29.90,South,188,4.0,10.0,41,0.00,,,0.00,weatherlink.com 1.10,2013-09-05 16:10:00,
2013-09-05 11:25:00,82.7,56.0,29.90,ESE,116,11.0,14.0,40,0.00,,,0.00,weatherlink.com 1.10,2013-09-05 16:25:00,
2013-09-05 11:40:00,82.5,56.0,29.91,East,101,9.0,14.0,41,0.00,,,0.00,weatherlink.com 1.10,2013-09-05 16:40:00,
2013-09-05 11:55:00,83.3,56.0,29.91,SE,128,9.0,21.0,39,0.00,,,0.00,weatherlink.com 1.10,2013-09-05 16:55:00,
2013-09-05 12:10:00,82.6,56.0,29.90,ESE,117,0.0,14.0,40,0.00,,,0.00,weatherlink.com 1.10,2013-09-05 17:10:00,
2013-09-05 12:25:00,83.9,56.0,29.90,SSE,159,6.0,9.0,39,0.00,,,0.00,weatherlink.com 1.10,2013-09-05 17:25:00,
2013-09-05 12:40:00,84.7,56.0,29.89,SSE,154,4.0,10.0,37,0.00,,,0.00,weatherlink.com 1.10,2013-09-05 17:40:00,
2013-09-05 12:55:00,85.2,55.0,29.89,ESE,108,9.0,12.0,36,0.00,,,0.00,weatherlink.com 1.10,2013-09-05 17:55:00,
2013-09-05 13:10:00,84.2,54.0,29.88,ESE,108,1.0,11.0,36,0.00,,,0.00,weatherlink.com 1.10,2013-09-05 18:10:00,
2013-09-05 13:25:00,83.8,56.0,29.88,ESE,105,4.0,10.0,38,0.00,,,0.00,weatherlink.com 1.10,2013-09-05 18:25:00,
2013-09-05 13:40:00,83.5,54.0,29.88,ESE,105,0.0,8.0,36,0.00,,,0.00,weatherlink.com 1.10,2013-09-05 18:40:00,
2013-09-05 14:10:00,84.5,54.0,29.87,SSE,150,2.0,14.0,35,0.00,,,0.00,weatherlink.com 1.10,2013-09-05 19:10:00,
2013-09-05 14:25:00,86.2,55.0,29.86,ESE,119,5.0,16.0,34,0.00,,,0.00,weatherlink.com 1.10,2013-09-05 19:25:00,
2013-09-05 14:40:00,86.3,54.0,29.85,ESE,103,9.0,15.0,33,0.00,,,0.00,weatherlink.com 1.10,2013-09-05 19:40:00,
2013-09-05 14:55:00,87.7,54.0,29.85,SE,145,8.0,11.0,31,0.00,,,0.00,weatherlink.com 1.10,2013-09-05 19:55:00,
2013-09-05 15:10:00,86.3,54.0,29.84,ESE,107,8.0,13.0,33,0.00,,,0.00,weatherlink.com 1.10,2013-09-05 20:10:00,
2013-09-05 15:25:00,87.9,54.0,29.84,ESE,123,2.0,13.0,31,0.00,,,0.00,weatherlink.com 1.10,2013-09-05 20:25:00,
2013-09-05 15:40:00,88.6,53.0,29.83,NNE,19,0.0,15.0,30,0.00,,,0.00,weatherlink.com 1.10,2013-09-05 20:40:00,
2013-09-05 15:55:00,89.3,53.0,29.83,ESE,115,1.0,16.0,29,0.00,,,0.00,weatherlink.com 1.10,2013-09-05 20:55:00,
2013-09-05 16:10:00,88.6,53.0,29.82,ESE,114,8.0,16.0,29,0.00,,,0.00,weatherlink.com 1.10,2013-09-05 21:10:00,
2013-09-05 16:25:00,85.9,53.0,29.82,East,100,9.0,16.0,32,0.00,,,0.00,weatherlink.com 1.10,2013-09-05 21:25:00,
2013-09-05 16:40:00,88.1,52.0,29.82,SE,146,8.0,18.0,29,0.00,,,0.00,weatherlink.com 1.10,2013-09-05 21:40:00,
2013-09-05 16:55:00,86.6,53.0,29.82,SE,139,7.0,18.0,31,0.00,,,0.00,weatherlink.com 1.10,2013-09-05 21:55:00,
2013-09-05 17:10:00,87.1,53.0,29.82,ESE,112,7.0,18.0,31,0.00,,,0.00,weatherlink.com 1.10,2013-09-05 22:10:00,
2013-09-05 17:25:00,86.4,53.0,29.82,ESE,111,15.0,17.0,32,0.00,,,0.00,weatherlink.com 1.10,2013-09-05 22:25:00,
2013-09-05 17:40:00,87.0,54.0,29.82,ESE,112,4.0,17.0,32,0.00,,,0.00,weatherlink.com 1.10,2013-09-05 22:40:00,
2013-09-05 17:55:00,86.5,53.0,29.81,SE,124,10.0,13.0,32,0.00,,,0.00,weatherlink.com 1.10,2013-09-05 22:55:00,
2013-09-05 18:10:00,86.1,54.0,29.81,SE,126,7.0,19.0,33,0.00,,,0.00,weatherlink.com 1.10,2013-09-05 23:10:00,
2013-09-05 18:25:00,85.9,53.0,29.81,ESE,122,4.0,12.0,32,0.00,,,0.00,weatherlink.com 1.10,2013-09-05 23:25:00,
2013-09-05 18:40:00,85.2,54.0,29.81,ESE,117,13.0,13.0,34,0.00,,,0.00,weatherlink.com 1.10,2013-09-05 23:40:00,
2013-09-05 18:55:00,84.8,56.0,29.81,East,84,7.0,21.0,37,0.00,,,0.00,weatherlink.com 1.10,2013-09-05 23:55:00,
2013-09-05 19:11:00,84.0,55.0,29.82,ESE,123,5.0,16.0,37,0.00,,,0.00,weatherlink.com 1.10,2013-09-06 00:11:00,
2013-09-05 19:25:00,83.4,54.0,29.82,ESE,119,8.0,13.0,37,0.00,,,0.00,weatherlink.com 1.10,2013-09-06 00:25:00,
2013-09-05 19:40:00,82.7,55.0,29.82,SE,140,5.0,13.0,38,0.00,,,0.00,weatherlink.com 1.10,2013-09-06 00:40:00,
2013-09-05 19:55:00,81.8,54.0,29.82,East,86,5.0,15.0,39,0.00,,,0.00,weatherlink.com 1.10,2013-09-06 00:55:00,
2013-09-05 20:10:00,80.9,54.0,29.83,SSE,152,9.0,18.0,40,0.00,,,0.00,weatherlink.com 1.10,2013-09-06 01:10:00,
2013-09-05 20:26:00,80.2,55.0,29.83,ESE,122,5.0,14.0,42,0.00,,,0.00,weatherlink.com 1.10,2013-09-06 01:26:00,
2013-09-05 20:40:00,79.5,55.0,29.84,ESE,123,3.0,16.0,43,0.00,,,0.00,weatherlink.com 1.10,2013-09-06 01:40:00,
2013-09-05 20:55:00,79.2,55.0,29.85,SE,140,5.0,14.0,44,0.00,,,0.00,weatherlink.com 1.10,2013-09-06 01:55:00,
2013-09-05 21:10:00,78.8,54.0,29.86,ESE,107,8.0,17.0,43,0.00,,,0.00,weatherlink.com 1.10,2013-09-06 02:10:00,
2013-09-05 21:26:00,78.4,54.0,29.86,SE,127,8.0,14.0,43,0.00,,,0.00,weatherlink.com 1.10,2013-09-06 02:26:00,
2013-09-05 21:41:00,77.7,53.0,29.86,ESE,111,7.0,13.0,43,0.00,,,0.00,weatherlink.com 1.10,2013-09-06 02:41:00,
2013-09-05 21:56:00,77.1,53.0,29.87,ESE,123,3.0,12.0,43,0.00,,,0.00,weatherlink.com 1.10,2013-09-06 02:56:00,
2013-09-05 22:11:00,76.6,53.0,29.87,ESE,116,4.0,13.0,44,0.00,,,0.00,weatherlink.com 1.10,2013-09-06 03:11:00,
2013-09-05 22:26:00,76.3,54.0,29.87,East,101,7.0,14.0,46,0.00,,,0.00,weatherlink.com 1.10,2013-09-06 03:26:00,
2013-09-05 22:41:00,75.8,55.0,29.87,SE,144,2.0,11.0,49,0.00,,,0.00,weatherlink.com 1.10,2013-09-06 03:41:00,
2013-09-05 22:56:00,75.4,55.0,29.87,ESE,114,8.0,10.0,50,0.00,,,0.00,weatherlink.com 1.10,2013-09-06 03:56:00,
2013-09-05 23:11:00,75.1,56.0,29.88,ESE,113,3.0,10.0,51,0.00,,,0.00,weatherlink.com 1.10,2013-09-06 04:11:00,
2013-09-05 23:26:00,74.7,56.0,29.88,ESE,108,3.0,5.0,52,0.00,,,0.00,weatherlink.com 1.10,2013-09-06 04:26:00,
2013-09-05 23:41:00,74.5,56.0,29.88,ESE,103,0.0,7.0,52,0.00,,,0.00,weatherlink.com 1.10,2013-09-06 04:41:00,
2013-09-05 23:56:00,74.2,55.0,29.88,South,173,4.0,5.0,52,0.00,,,0.00,weatherlink.com 1.10,2013-09-06 04:56:00,